Location: Baix
(44.7118°N, 4.7648°E)
Time: 23:57:36
(UTC+00:00)

Courier 1B - Visible Passes

Search period start: 05 December 2020 00:00
Search period end: 15 December 2020 00:00
Orbit: 962 x 1209 km, 28.3° (Epoch: 05 December)

Date Brightness Start Highest point End Pass type
(mag) Time Alt. Az. Time Alt. Az. Time Alt. Az.
05 Dec 9.6 19:08:09 10° SSW 19:09:36 13° S 19:09:36 13° S visible
06 Dec 9.5 18:15:46 10° S 18:17:57 12° SSE 18:19:14 11° SSE visible
07 Dec 9.5 19:13:18 10° SSW 19:15:46 16° S 19:15:46 16° S visible
08 Dec 9.3 18:20:13 10° SSW 18:23:50 15° SSE 18:25:24 14° SSE visible
09 Dec 9.6 17:27:22 10° SSW 17:30:24 14° SSE 17:33:25 10° SE visible
09 Dec 9.4 19:19:01 10° SW 19:21:56 17° SSW 19:21:56 17° SSW visible
10 Dec 9.7 16:34:55 10° S 16:36:58 11° SSE 16:39:00 10° SE visible
10 Dec 9.3 18:25:38 10° SW 18:29:46 18° S 18:31:35 16° SSE visible
11 Dec 9.5 17:32:20 10° SSW 17:36:19 17° S 17:40:15 10° SE visible
11 Dec 9.5 19:25:10 10° SW 19:28:08 16° SSW 19:28:08 16° SSW visible
12 Dec 9.6 16:39:09 10° SSW 16:42:51 16° S 16:46:30 10° SE visible
12 Dec 9.3 18:31:31 10° SW 18:35:43 18° S 18:37:50 15° SSE visible
13 Dec 9.5 17:37:57 10° SW 17:42:15 18° S 17:46:30 10° SE visible
13 Dec 9.7 19:31:50 10° SW 19:34:28 14° SSW 19:34:28 14° SSW visible
14 Dec 9.6 16:44:27 10° SW 16:48:47 18° S 16:53:01 10° SE visible
14 Dec 9.5 18:37:50 10° SW 18:41:39 16° S 18:44:15 13° SSE visible
